Regional Weather Roundup
Issued by NWS

Home | Current Version | Previous Version | Text Only | Print | Product List | Glossary Off
Versions: 1 2 3 4 5 6 7 8 9 10 11 12 13 14 15 16 17 18 19 20 21 22 23 24 25 26 27 28 29 30 31 32 33 34 35 36 37 38 39 40 41 42 43 44 45 46 47 48 49 50

000
ASUS43 KLOT 270209
RWRIL

ILLINOIS REGIONAL WEATHER ROUNDUP
NATIONAL WEATHER SERVICE CHICAGO/ROMEOVILLE IL
900 PM CDT FRI MAY 26 2017

NOTE: "FAIR" INDICATES FEW OR NO CLOUDS BELOW 12,000 FEET WITH NO
SIGNIFICANT WEATHER AND/OR OBSTRUCTIONS TO VISIBILITY.

* THESE STATIONS ARE NOT UNDER NWS QUALITY CONTROL. THEY ALSO MAY NOT
  REPORT WEATHER SUCH AS PRECIPITATION OR FOG.

ILZ001-002-007-009-015-016-024-270300-
NORTHWEST ILLINOIS

CITY           SKY/WX    TMP DP  RH WIND       PRES   REMARKS
MOLINE         PTCLDY    64  59  83 NE5       29.82R
STERLING*      CLOUDY    61  58  90 NE8       29.84
SAVANNA*       CLOUDY    61  58  88 NE7       29.84S
$$

ILZ003-004-008-010-011-017-018-270300-
NORTH CENTRAL ILLINOIS

CITY           SKY/WX    TMP DP  RH WIND       PRES   REMARKS
ROCKFORD       CLOUDY    60  55  83 E7        29.86R
FREEPORT*      CLOUDY    58  56  92 CALM      29.87R
ROCHELLE*      CLOUDY    57  55  93 E8        29.84R
DE KALB*       MOCLDY    56  55  95 E13       29.83F
PERU*          CLOUDY    60  57  91 NE12G17   29.82R
$$

ILZ005-006-012>014-019>023-270300-
NORTHEAST ILLINOIS

CITY           SKY/WX    TMP DP  RH WIND       PRES   REMARKS
CHICAGO-OHARE  LGT RAIN  56  53  90 NE12      29.84R
CHICAGO-MIDWAY DRIZZLE   57  55  93 NE9       29.83R
AURORA         CLOUDY    58  56  93 NE10      29.83R
LANSING*       CLOUDY    56  55  95 NE9       29.83R
JOLIET*        CLOUDY    60  58  92 NE6       29.82S
WAUKEGAN       MOCLDY    55  54  96 E9        29.84R
DUPAGE AIRPORT CLOUDY    56  56 100 NE8       29.83R
KANKAKEE*      MOCLDY    64  64  97 CALM      29.80S
WHEELING       LGT RAIN  54  54 100 NE7       29.86R FOG
MORRIS*        CLOUDY    60  57  90 CALM      29.81R
ROMEOVILLE*    CLOUDY    57  57 100 NE14      29.82S FOG
$$

LMZ740>746-270300-
SOUTHERN LAKE MICHIGAN

STATION/POSITION SKY/WX   TEMP    WIND        PRES    VSBY  WAVE
                          AIR SEA DIR/SP/G                  HT/PER
                          (F)     (DEG/KT/KT) (MB)    (MI)  (FT/S)
SOUTHERN BUOY              49 47   40/  4/  6 1011.5S         0
WILMETTE HARBOR            49 51                N/A           1/ 3
HARRISON CRIB              53      40/ 15/ 16   N/A
BURNHAM HARBOR             54      40/ 11/ 13   N/A
CALUMET HARBOR             56      40/ 12/ 17 1009.4F
BURNS HARBOR               56      70/ 17/ 21 1010.2F
MICHIGAN CITY              55      50/ 18/ 19   N/A
MICHIGAN CITY 6N           54 53   60/ 14/ 17   N/A           2/ 3
ST. JOSEPH                 57 56   80/ 10/ 12 1011.1          2/ 3
$$

ILZ025>027-034>036-040-047-049-050-058-095>099-270300-
WEST-CENTRAL ILLINOIS

CITY           SKY/WX    TMP DP  RH WIND       PRES   REMARKS
QUINCY         CLEAR     70  65  84 N5        29.80R
GALESBURG*     CLOUDY    65  62  90 N9        29.81R
MACOMB*        CLEAR     67  63  86 N7        29.82R
JACKSONVILLE*  CLOUDY    72  67  84 NW5       29.79R
PITTSFIELD*    MOCLDY    73  69  88 CALM      29.81R
$$

ILZ028>032-037-038-041>044-048-051>054-059>061-270300-
CENTRAL ILLINOIS

CITY           SKY/WX    TMP DP  RH WIND       PRES   REMARKS
PONTIAC        CLEAR     67  66  98 CALM      29.80R
BLOOMINGTON    MOCLDY    66  64  93 NE3       29.81R
DECATUR        CLOUDY    73  66  78 SW10      29.78R
PEORIA         CLEAR     68  65  90 N3        29.79R
LACON*         MOCLDY    66  64  94 N5        29.79R
LINCOLN*       CLOUDY    72  67  84 N5        29.79R
SPRINGFIELD    MOCLDY    75  67  76 N5        29.78R
TAYLORVILLE    CLEAR     71  66  85 S5        29.78R
$$

ILZ033-039-045-046-055>057-062-063-270300-
EAST-CENTRAL ILLINOIS

CITY           SKY/WX    TMP DP  RH WIND       PRES   REMARKS
CHAMPAIGN      PTCLDY    70  65  84 SW7       29.78R
RANTOUL*       LGT RAIN  67  66  96 NE3       29.78R
MATTOON        MOCLDY    72  66  81 SW7       29.79R
PARIS*         CLOUDY    71  65  80 SW7       29.80R
$$

ILZ079-100>102-270300-
SOUTHWEST ILLINOIS

CITY           SKY/WX    TMP DP  RH WIND       PRES   REMARKS
ALTON          MOCLDY    72  66  83 S6        29.79R
BELLEVILLE     MOCLDY    73  67  80 SW8       29.81R
CAHOKIA*       MOCLDY    75  66  73 S5        29.79R
SPARTA*        CLOUDY    72  66  82 SW9       29.82R
$$

ILZ064>066-069>071-074>076-080>082-084>086-088>090-092>094-270300-
SOUTH-CENTRAL ILLINOIS

CITY           SKY/WX    TMP DP  RH WIND       PRES   REMARKS
CARBONDALE     CLOUDY    71  69  93 S9        29.83R
CAIRO*         CLOUDY    71  70  97 CALM      29.85S
EFFINGHAM*     CLEAR     71  67  87 S6        29.81S
MARION         CLOUDY    72  72 100 SW7       29.83S
MT. VERNON       N/A     72  67  84 SW8       29.82R
CENTRALIA*     CLOUDY    73  68  84 SW9       29.80R
SALEM*         CLOUDY    74  66  77 SW9       29.81R
METROPOLIS*    CLOUDY    71  69  95 CALM      29.87R
$$

ILZ067-068-072-073-078-083-087-091-270300-
SOUTHEAST ILLINOIS

CITY           SKY/WX    TMP DP  RH WIND       PRES   REMARKS
LAWRENCEVILLE  CLOUDY    75  66  73 SW7       29.81R
FLORA*         MOCLDY    74  66  75 SW9       29.81R
FAIRFIELD*     CLOUDY    73  67  80 S7        29.81R
HARRISBURG*    CLOUDY    72  69  90 S6        29.84S
ROBINSON*      CLOUDY    73  65  75 SW5       29.81R
CARMI*         CLOUDY    72  67  85 S10       29.82S
$$

ABBREVIATIONS USED IN REMARKS
   TC - TEMPERATURE IN CELSIUS
  WCI - WIND CHILL INDEX
   HX - HEAT INDEX
  VSB - VISIBILITY
$$





USA.gov is the U.S. government's official web portal to all federal, state and local government web resources and services.